Main page
METAR-TAF:

METAR-TAF

Airports :

RAF Fairford

Fairford, England

latitude: 51-41N, longitude: 001-47W, elevation: 87 m

Current weather observation

The report was made 22 minutes ago, at 22:56 UTC
Wind 3 kt from the Northeast
Temperature 14°C
Humidity 72%
Pressure 1001 hPa
Visibility 10 km or more
Broken clouds at a height of 11000 ft

METAR: EGVA 222256Z AUTO 05003KT 9999 BKN110 14/09 A2956 RMK AO2 SLP012 T01440086 VISNO RWY27 $

Time: 00:18 (23:18 UTC)


TAF: missing

Weather observations and forecasts of more than 4000 airports (METAR and TAF reports).

The available stations are represented by yellow and red dots on the map.

Hover mouse over dot to see the name of the station.

Then click to see weather observations and forecasts.

To change the map : click on the green buttons with a black cross to zoom in, on the green button with a dash to zoom out, or on the green arrows for adjacent maps.


METAR-TAF: